Location: *
(51.8333°N, 0.2500°E)
Time: 14:20:30
(UTC+00:00)

Daily predictions for brighter satellites

Satellite Brightness Start Highest point End
(mag) Time Altitude Azimuth Time Altitude Azimuth Time Altitude Azimuth
Cosmos 2074 Rocket 4.2 20:56:31 10° NNW 21:02:49 82° W 21:09:02 10° S
Cosmos 1331 Rocket 4.1 20:58:22 10° S 21:03:35 63° ESE 21:08:50 10° NNE
Cosmos 2082 Rocket 3.0 20:59:44 10° SSE 21:04:46 33° ESE 21:09:48 10° NE
Cosmos 2084 Rocket 3.8 21:05:49 10° NW 21:09:36 50° SW 21:13:31 10° SSE
Helios 1A Rocket 3.0 21:05:36 10° SSE 21:09:40 69° ENE 21:13:46 10° N
Cosmos 1328 4.3 21:06:19 10° SSE 21:10:07 42° E 21:13:54 10° NNE
Spot 2 Rocket 3.6 21:05:01 10° SSE 21:10:07 79° ENE 21:15:16 10° NNW
Cosmos 2360 Rocket 4.2 21:06:54 10° NNW 21:11:12 21° NNE 21:15:28 10° E
Nadezhda 1 Rocket 4.0 21:09:31 10° S 21:15:31 67° E 21:21:34 10° NNE
ERS-1 Rocket 3.0 21:22:40 10° SSE 21:27:43 86° WSW 21:32:47 10° NNW
Cosmos 1452 Rocket 4.3 21:24:12 10° SW 21:29:22 56° WNW 21:34:34 10° NNE
Cosmos 1892 3.7 21:26:27 10° SSE 21:29:39 30° E 21:32:59 10° NNE
Meteor 1-21 Rocket 4.3 21:26:39 10° S 21:32:16 89° W 21:38:04 10° NNE
Cosmos 1110 Rocket 4.3 21:27:28 10° SSW 21:32:45 76° WNW 21:38:06 10° NNE
Cosmos 2228 3.9 21:29:58 10° NNW 21:34:02 45° W 21:38:04 10° SSW
Cosmos 1302 Rocket 4.1 21:30:36 10° S 21:35:41 58° ESE 21:40:48 10° NNE
Cosmos 2154 Rocket 4.4 21:31:01 10° NNW 21:37:10 66° W 21:43:16 10° S
Cosmos 192 4.3 21:34:03 10° SSW 21:38:54 70° ESE 21:43:48 10° NNE
Cosmos 968 Rocket 3.7 21:36:18 10° NNW 21:41:29 70° WSW 21:46:30 11° SSE
Cosmos 1892 Rocket 3.6 21:38:30 10° S 21:42:50 65° E 21:47:10 10° NNE
Cosmos 1697 Rocket 3.9 21:38:50 10° NW 21:43:53 35° WSW 21:48:55 10° S
Cosmos 1980 Rocket 2.5 21:39:11 10° NW 21:44:49 63° WSW 21:50:07 11° SSE
Cosmos 2219 Rocket 4.4 21:42:50 10° NNW 21:46:53 20° NNE 21:50:57 10° ENE
SL-16 R/B 2.8 21:42:03 10° NNW 21:47:37 50° NE 21:52:57 11° SE
Cosmos 2058 Rocket 3.1 21:44:54 10° N 21:49:22 81° E 21:53:20 13° SSE
Cosmos 1408 2.5 21:48:44 12° S 21:51:51 60° E 21:55:16 10° NNE
SL-8 Rocket 4.1 21:46:12 10° N 21:52:27 72° ENE 21:58:01 13° SSE
Cosmos 2369 4.3 21:47:40 10° NW 21:53:13 50° WSW 21:58:31 11° S
CZ-2C R/B 3.7 21:48:53 10° NNE 21:53:28 85° ESE 21:57:57 10° SSW
USA 267 4.3 21:49:16 10° ENE 21:54:18 23° SE 21:59:18 10° S
ATLAS 5 CENTAUR R/B 2.0 21:51:07 10° S 21:54:27 32° ESE 21:58:10 10° ENE
Resurs 01 Rocket 4.3 21:53:20 10° WSW 21:55:33 13° W 21:57:47 10° WNW
SJ 16-02 2.6 21:55:47 10° N 21:59:50 33° ENE 22:03:35 11° ESE
In-Cosmos 22 Rocket 4.3 21:59:05 12° S 22:04:04 56° E 22:09:21 10° NNE
COSMOS 2406 3.5 21:59:09 10° SW 22:04:55 77° WNW 22:10:42 10° NNE
Cosmos 1833 Rocket 3.8 22:04:58 10° SW 22:10:23 47° NW 22:15:51 10° NNE
Cosmos 1825 2.5 22:08:00 17° SSE 22:10:34 47° E 22:14:12 10° NNE
Cosmos 1867 4.4 22:06:00 10° NW 22:11:04 40° WSW 22:15:18 14° S
Cosmos 2366 rocket 4.1 22:06:28 10° N 22:12:51 84° ENE 22:18:15 15° SSE
Cosmos 1869 3.2 22:11:45 10° N 22:15:40 76° E 22:18:25 19° SSE
Cosmos 2218 Rocket 4.1 22:12:52 10° N 22:19:19 89° W 22:24:42 15° S
Cosmos 2322 Rocket 2.5 22:16:05 10° NNW 22:21:44 62° NE 22:26:28 15° SE
GP-B 3.1 22:18:21 10° N 22:22:49 84° W 22:26:27 15° S
Meteor 1-27 4.2 22:17:24 10° NNW 22:23:00 83° W 22:27:28 16° S
ARIANE 5 R/B 3.6 22:21:46 12° SSW 22:25:37 41° W 22:29:49 10° NNW
SAR-Lupe-4 3.6 22:23:36 10° NNE 22:27:11 66° ESE 22:29:35 19° S
Terra 3.1 22:23:11 10° SSW 22:27:29 33° W 22:31:49 10° NNW
USA 276 2.9 22:25:05 10° W 22:27:49 31° SSW 22:28:42 26° SSE
FALCON 9 DEB 4.3 22:26:46 10° W 22:29:31 25° SW 22:30:31 21° S
USA 234 3.4 22:24:33 10° ESE 22:31:06 77° NNE 22:37:41 10° WNW
Cosmos 2278 4.4 22:29:39 10° NW 22:35:05 45° WSW 22:39:18 16° S
BREEZE-M DEB (TANK) 3.3 22:32:53 10° W 22:35:45 64° S 22:45:23 10° ESE
Cosmos 1633 2.7 22:39:00 25° SSE 22:40:45 51° E 22:44:08 10° NNE
Cosmos 2333 Rocket 3.2 22:37:02 10° NNW 22:42:32 42° NE 22:48:00 10° ESE
Cosmos 1992 Rocket 4.0 22:37:58 10° SSW 22:43:13 88° WNW 22:48:30 10° NNE
SAR-Lupe-1 4.2 22:40:23 10° N 22:43:57 71° WNW 22:46:41 16° SSW
Okean 1-7 Rocket 3.7 22:40:57 15° SSW 22:44:37 77° WNW 22:49:10 10° N
Cosmos 1758 Rocket 3.9 22:42:24 22° SSE 22:45:00 51° E 22:49:17 10° NNE
ASTEX 1 3.9 22:41:45 10° N 22:46:42 60° W 22:51:09 12° SSW
Cosmos 2082 Rocket 3.0 22:43:04 10° SW 22:48:39 54° NW 22:54:15 10° NNE
Cosmos 1606 2.9 22:48:24 10° N 22:52:15 60° ENE 22:54:21 25° SSE
Cosmos-2242 2.9 22:48:22 10° N 22:52:38 83° E 22:55:10 24° SSE
Cosmos 1812 Rocket 3.6 22:48:54 10° NNW 22:53:23 80° W 22:56:09 23° S
Cosmos 2360 Rocket 2.4 22:50:32 10° NNW 22:56:14 72° ENE 23:00:31 18° SE
ADEOS Rocket 3.7 22:53:14 18° SSE 22:59:09 72° ENE 23:06:55 10° NNW
Gbstr 26 Del rocket 3.9 22:59:00 24° S 23:00:20 29° SE 23:04:33 10° E
Cosmos 1340 Rocket 4.1 22:58:42 20° SE 23:00:21 27° E 23:03:46 10° NNE
Cosmos 1821 Rocket 4.0 23:00:48 10° NNW 23:07:03 81° W 23:11:22 21° S
Cosmos 1602 Rocket 3.6 23:05:35 20° SSW 23:08:32 75° WNW 23:12:53 10° N
SL-27 R/B 4.5 23:13:18 13° ESE 23:13:42 14° E 23:15:25 10° ENE
Cosmos 972 Rocket 4.3 23:09:33 10° NNW 23:14:44 69° ENE 23:18:41 20° SSE
Cosmos 44 4.0 23:14:09 24° SSE 23:15:44 31° ESE 23:19:39 10° ENE
Cosmos 1354 Rocket 4.5 23:11:15 10° NNW 23:16:23 51° WSW 23:19:33 22° S
Cosmos 2237 4.5 23:13:20 10° NW 23:18:58 59° WSW 23:22:29 23° S
ERS-2 3.3 23:18:39 10° NE 23:21:47 28° E 23:22:56 23° SE
Cosmos 2237 Rocket 4.3 23:17:32 10° NNW 23:22:03 24° NE 23:26:33 10° E
ALOS 2 2.6 23:21:37 26° S 23:24:03 80° WSW 23:28:29 10° NNW
Spot 4 4.2 23:21:49 23° S 23:24:40 54° W 23:29:25 10° NNW
CENTAUR R/B 4.1 23:22:31 13° SE 23:24:52 17° ESE 23:28:49 10° ENE
Cosmos 1980 Rocket 4.5 23:25:52 10° WNW 23:27:40 11° W 23:29:28 10° WSW
COSMOS 2428 3.6 23:23:29 10° NNW 23:29:00 47° NE 23:34:31 10° SE
Cosmos 1777 Rocket 4.3 23:24:52 10° NNW 23:30:04 58° WSW 23:33:07 24° S
H-2A R/B 3.4 23:26:20 10° NNE 23:30:33 77° ESE 23:32:48 27° S
SL-16 R/B 3.1 23:26:26 10° NW 23:31:35 36° WSW 23:34:48 20° SSW
Cosmos 2219 Rocket 2.6 23:26:21 10° NNW 23:32:01 63° NE 23:36:41 15° SE
Cosmos 2058 2.9 23:29:58 28° S 23:32:10 81° E 23:36:21 10° NNE
Nadezhda 3 Rocket 4.0 23:28:03 20° SSW 23:32:29 83° W 23:38:43 10° N
Cosmos 1953 Rocket 3.7 23:33:03 27° SSE 23:35:19 62° E 23:39:42 10° NNE
USA 267 3.2 23:31:39 10° ENE 23:38:10 66° SE 23:44:40 10° SW
SJ 16-02 2.3 23:34:21 10° NW 23:38:24 35° WSW 23:40:31 22° SSW
ATLAS 5 CENTAUR R/B 2.6 23:35:04 10° WSW 23:38:48 44° NNW 23:43:08 10° NE
Meteor 2-2 Rocket 4.4 23:34:17 10° NNW 23:40:18 75° W 23:44:11 23° S
Cosmos 2322 4.0 23:35:30 10° NNW 23:41:11 67° NE 23:45:45 16° SE
SL-4 R/B 1.8 23:40:05 26° SW 23:41:42 47° SSE 23:45:15 10° E
Cosmos 1898 Rocket 4.4 23:37:33 10° NNW 23:42:32 45° ENE 23:47:03 12° SE
Cosmos 1825 Rocket 3.6 23:41:10 25° SSW 23:43:38 75° W 23:48:01 10° N
COSMOS 2455 4.1 23:43:55 10° NNW 23:49:35 40° NE 23:55:13 10° ESE
Cosmos 2221 2.5 23:45:33 10° N 23:49:56 83° ENE 23:52:14 28° SSE
PSLV R/B 4.2 23:48:32 10° NNE 23:53:11 51° E 23:55:36 26° SSE
